Home > Weather > Manaus > Past weeks

Flag for Brazil Past Weather in Manaus, Amazonas, Brazil — Yesterday and Last 2 Weeks

Now
73 °F

Passing clouds.


Feels Like: 73 °F
Forecast: N/A
Wind: No wind

Location: Manaus Aeroporto

Current Time: Aug 24, 2016 at 7:32:24 PM

Latest Report: Aug 24, 2016 at 7:00 PM


Visibility: N/A

Pressure: 29.89 "Hg

Humidity: 83%

Dew Point: 68 °F

Location of ManausLocation

Past Weather in Manaus — Graph

°F

Manaus Temperature Yesterday

Maximum temperature yesterday: 86 °F (at 2:00 PM)
Minimum temperature yesterday: 77 °F (at 5:00 AM)
Average temperature yesterday: 80 °F

High & Low Weather Summary for the Past Weeks

 TemperatureHumidityPressure
High95 °F (Aug 11, 3:00 PM)94% (Aug 13, 3:00 AM)30.04 "Hg (Aug 13, 3:00 AM)
Low72 °F (Aug 24, 4:00 PM)38% (Aug 10, 5:00 PM)29.77 "Hg (Aug 13, 4:00 PM)
Average84 °F67%29.88 "Hg
* Reported Aug 10 2:00 PM — Aug 24 6:00 PM, Manaus, Weather by CustomWeather, © 2016

Note: Actual official high and low records may vary slightly from our data, if they occured in-between our weather recording intervals... More about our weather records

Advertising

Manaus Weather History for the Previous 24 Hours

Scroll right to see more
 ConditionsComfort  
Time TempWeatherWind HumidityBarometerVisibility
6:00 PM
Wed, Aug 24
72 °FPartly sunny.5 mph88%29.92 "HgN/A
5:00 PM72 °FBroken clouds.9 mph88%29.89 "HgN/A
4:00 PM72 °FLight rain. Partly sunny.12 mph88%29.89 "Hg5 mi
3:00 PM79 °FThunderstorms. Partly sunny.20 mph65%29.89 "Hg1 mi
2:00 PM86 °FScattered clouds.6 mph59%29.86 "Hg5 mi
1:00 PM82 °FScattered clouds.7 mph66%29.89 "HgN/A
12:00 PM88 °FScattered clouds.6 mph59%29.92 "HgN/A
11:00 AM88 °FPassing clouds.5 mph62%29.95 "HgN/A
10:00 AM86 °FSunny.7 mph59%29.98 "Hg10 mi
9:00 AM84 °FSunny.3 mph66%29.98 "Hg10 mi
8:00 AM82 °FSunny.3 mph70%29.95 "Hg10 mi
7:00 AM79 °FSunny.2 mph74%29.92 "Hg10 mi
6:00 AM77 °FClear.3 mph79%29.92 "Hg10 mi
5:00 AM77 °FClear.3 mph83%29.89 "Hg10 mi
4:00 AM79 °FClear.2 mph79%29.89 "Hg10 mi
3:00 AM79 °FClear.2 mph79%29.89 "Hg10 mi
2:00 AM79 °FClear.3 mph79%29.89 "Hg10 mi
1:00 AM79 °FClear.2 mph79%29.92 "Hg10 mi
12:00 AM79 °FClear.2 mph79%29.92 "Hg10 mi
11:00 PM
Tue, Aug 23
79 °FClear.No wind79%29.95 "Hg10 mi
10:00 PM79 °FClear.No wind79%29.95 "Hg10 mi
9:00 PM81 °FClear.No wind70%29.95 "Hg10 mi
8:00 PM81 °FClear.No wind70%29.92 "Hg10 mi
7:00 PM81 °FPassing clouds.2 mph70%29.92 "HgN/A
Weather by CustomWeather, © 2016

See weather overviewHow to use our weather pages